TimeEET,TemperatureF,Dew PointF,Humidity,Sea Level PressureIn,VisibilityMPH,Wind Direction,Wind SpeedMPH,Gust SpeedMPH,PrecipitationIn,Events,Conditions,WindDirDegrees,DateUTC
12:20 AM,51.8,48.2,88,29.86,3.1,NNE,4.6,-,N/A,,Scattered Clouds,30,2012-12-07 22:20:00
12:50 AM,51.8,48.2,88,29.86,3.1,NNE,4.6,-,N/A,,Mostly Cloudy,30,2012-12-07 22:50:00
1:20 AM,53.6,48.2,82,29.86,3.1,East,3.5,-,N/A,Rain,Light Rain Showers,80,2012-12-07 23:20:00
1:50 AM,51.8,48.2,88,29.86,6.2,NE,3.5,-,N/A,,Mostly Cloudy,40,2012-12-07 23:50:00
2:20 AM,50.0,48.2,94,29.86,6.2,NNE,2.3,-,N/A,,Scattered Clouds,20,2012-12-08 00:20:00
2:50 AM,50.0,46.4,87,29.86,6.2,West,3.5,-,N/A,,Scattered Clouds,270,2012-12-08 00:50:00
3:20 AM,51.8,48.2,88,29.86,6.2,Variable,2.3,-,N/A,,Mostly Cloudy,0,2012-12-08 01:20:00
3:50 AM,50.0,48.2,94,29.86,6.2,Variable,1.2,-,N/A,,Scattered Clouds,0,2012-12-08 01:50:00
4:20 AM,50.0,46.4,87,29.89,6.2,North,4.6,-,N/A,,Scattered Clouds,10,2012-12-08 02:20:00
4:50 AM,50.0,46.4,87,29.89,6.2,NE,5.8,-,N/A,,Scattered Clouds,40,2012-12-08 02:50:00
5:20 AM,50.0,48.2,94,29.89,6.2,NNE,4.6,-,N/A,,Mostly Cloudy,30,2012-12-08 03:20:00
5:50 AM,51.8,50.0,94,29.92,6.2,NNE,5.8,-,N/A,,Mostly Cloudy,20,2012-12-08 03:50:00
6:20 AM,51.8,48.2,88,29.92,6.2,NNE,5.8,-,N/A,,Mostly Cloudy,30,2012-12-08 04:20:00
6:50 AM,51.8,50.0,94,29.92,6.2,NNE,8.1,-,N/A,,Mostly Cloudy,30,2012-12-08 04:50:00
7:20 AM,51.8,48.2,88,29.95,6.2,NNE,4.6,-,N/A,,Mostly Cloudy,30,2012-12-08 05:20:00
7:50 AM,53.6,50.0,88,29.95,6.2,NNE,9.2,-,N/A,,Scattered Clouds,20,2012-12-08 05:50:00
8:20 AM,53.6,50.0,88,29.98,6.2,North,9.2,-,N/A,,Scattered Clouds,10,2012-12-08 06:20:00
8:50 AM,55.4,50.0,82,29.98,6.2,NNE,4.6,-,N/A,,Scattered Clouds,20,2012-12-08 06:50:00
9:20 AM,57.2,50.0,77,29.98,6.2,North,4.6,-,N/A,,Scattered Clouds,10,2012-12-08 07:20:00
9:50 AM,59.0,44.6,59,29.98,6.2,NE,8.1,-,N/A,,Scattered Clouds,50,2012-12-08 07:50:00
10:20 AM,59.0,42.8,55,29.98,6.2,NE,9.2,-,N/A,,Scattered Clouds,40,2012-12-08 08:20:00
10:50 AM,60.8,42.8,52,29.98,6.2,NE,6.9,-,N/A,,Scattered Clouds,50,2012-12-08 08:50:00
11:20 AM,60.8,42.8,52,29.98,6.2,NE,9.2,-,N/A,,Scattered Clouds,50,2012-12-08 09:20:00
11:50 AM,62.6,42.8,48,29.98,6.2,NNE,10.4,-,N/A,,Scattered Clouds,20,2012-12-08 09:50:00
12:20 PM,64.4,41.0,42,29.98,6.2,NNE,6.9,-,N/A,,Scattered Clouds,30,2012-12-08 10:20:00
12:50 PM,64.4,41.0,42,29.98,6.2,North,5.8,-,N/A,,Scattered Clouds,10,2012-12-08 10:50:00
1:20 PM,64.4,39.2,40,29.98,6.2,Variable,2.3,-,N/A,,Scattered Clouds,0,2012-12-08 11:20:00
1:50 PM,64.4,41.0,42,29.98,6.2,Variable,1.2,-,N/A,,Scattered Clouds,0,2012-12-08 11:50:00
2:20 PM,64.4,42.8,45,29.98,6.2,East,4.6,-,N/A,,Scattered Clouds,100,2012-12-08 12:20:00
2:50 PM,62.6,44.6,52,29.98,6.2,ESE,5.8,-,N/A,,Scattered Clouds,120,2012-12-08 12:50:00
3:20 PM,62.6,44.6,52,29.98,6.2,SE,5.8,-,N/A,,Scattered Clouds,130,2012-12-08 13:20:00
3:50 PM,60.8,44.6,55,30.01,6.2,ESE,3.5,-,N/A,,Scattered Clouds,120,2012-12-08 13:50:00
4:20 PM,59.0,44.6,59,30.01,6.2,SE,3.5,-,N/A,,Scattered Clouds,130,2012-12-08 14:20:00
4:50 PM,57.2,44.6,63,30.01,6.2,Calm,Calm,-,N/A,,Scattered Clouds,0,2012-12-08 14:50:00
5:20 PM,55.4,46.4,72,30.04,3.1,Calm,Calm,-,N/A,,Scattered Clouds,0,2012-12-08 15:20:00
5:50 PM,53.6,46.4,77,30.04,3.1,Calm,Calm,-,N/A,,Scattered Clouds,0,2012-12-08 15:50:00
6:20 PM,53.6,46.4,77,30.06,3.1,Calm,Calm,-,N/A,,Scattered Clouds,0,2012-12-08 16:20:00
6:50 PM,51.8,44.6,76,30.06,3.1,Variable,1.2,-,N/A,,Scattered Clouds,0,2012-12-08 16:50:00
7:20 PM,53.6,46.4,77,30.06,3.1,Variable,1.2,-,N/A,,Scattered Clouds,0,2012-12-08 17:20:00
7:50 PM,50.0,44.6,82,30.06,2.5,North,3.5,-,N/A,,Scattered Clouds,10,2012-12-08 17:50:00
8:20 PM,51.8,48.2,88,30.06,2.5,NNE,3.5,-,N/A,,Scattered Clouds,20,2012-12-08 18:20:00
8:50 PM,50.0,46.4,87,30.06,3.1,NNE,4.6,-,N/A,,Scattered Clouds,20,2012-12-08 18:50:00
9:20 PM,50.0,46.4,87,30.06,3.1,North,5.8,-,N/A,,Scattered Clouds,10,2012-12-08 19:20:00
9:50 PM,51.8,46.4,82,30.09,3.1,NNE,4.6,-,N/A,,Scattered Clouds,30,2012-12-08 19:50:00
10:20 PM,53.6,48.2,82,30.09,3.1,North,6.9,-,N/A,,Scattered Clouds,10,2012-12-08 20:20:00
10:50 PM,51.8,46.4,82,30.09,3.1,Variable,2.3,-,N/A,,Scattered Clouds,0,2012-12-08 20:50:00
11:20 PM,51.8,46.4,82,30.09,3.1,Variable,2.3,-,N/A,,Scattered Clouds,0,2012-12-08 21:20:00
11:50 PM,50.0,46.4,87,30.09,3.1,Variable,1.2,-,N/A,,Scattered Clouds,0,2012-12-08 21:50:00